Simultaneous Nadir Overpasses (SNOs) Predictions

Prediction of SNOs between LANDSAT-8 and NOAA-19 Satellite Orbit:

Table of predicted SNOs for the next 14.0 days since TLE Epoch: 2/18/2017
Index Date (LANDSAT-8) Time (LANDSAT-8) Lat,Lon (LANDSAT-8) SZA (LANDSAT-8 ) Date (NOAA-19) Time (NOAA-19) Lat,Lon (NOAA-19) SZA (NOAA-19 ) Distance(km) Time Diff (sec)
1 02/20/2017 02:18:14 76.27, 154.40 87.15 02/20/2017 02:17:09 76.35, 150.99 87.17 90.33 65
2 02/20/2017 03:07:52 -75.75, -39.56 93.42 02/20/2017 03:07:54 -75.75, -39.57 93.42 0.39 2
3 02/22/2017 07:52:04 -75.99,-109.92 93.97 02/22/2017 07:50:53 -76.05,-111.28 93.93 37.16 71
4 02/22/2017 08:41:34 75.77, 57.07 85.80 02/22/2017 08:41:50 75.74, 57.02 85.77 3.19 16
5 02/24/2017 13:25:50 75.80, -13.91 85.02 02/24/2017 13:24:44 75.80, -13.83 85.02 2.00 66
6 02/24/2017 14:15:19 -75.73, 153.51 95.07 02/24/2017 14:15:40 -75.73, 153.66 95.06 3.98 21
7 02/26/2017 18:59:34 -75.81, 82.68 95.80 02/26/2017 18:58:34 -75.82, 82.72 95.80 0.95 60
8 02/26/2017 19:49:01 75.74,-109.90 84.11 02/26/2017 19:49:37 75.74,-109.79 84.12 2.96 36
9 03/01/2017 00:33:16 75.81, 179.26 83.36 03/01/2017 00:32:31 75.81, 179.32 83.35 2.01 45
10 03/01/2017 01:22:45 -75.75, -13.31 96.73 03/01/2017 01:23:27 -75.78, -13.32 96.69 3.61 42
11 03/03/2017 06:06:59 -75.82, -84.16 97.49 03/03/2017 06:06:19 -75.82, -84.13 97.49 0.83 40
